CW8374 Weather Reports


time (UTC)temp
C
wind
direction
speed
KPH
gust
KPH
rain 1hr
cm
rain 24hr
cm
rain mn
cm
humidity
%
barometer
mb
20210414114945 11 34 0.0 4.8 0.00 0.00 0.00 66 1030.6
20210414114406 11 34 0.0 0.0 0.00 0.00 0.00 64 1030.6
20210414113415 11 32 1.6 4.8 0.00 0.00 0.00 67 1030.7
20210414112229 11 51 1.6 4.8 0.00 0.00 0.00 67 1030.7
20210414111416 11 51 3.2 8.0 0.00 0.00 0.00 67 1030.7
20210414110904 11 51 1.6 4.8 0.00 0.00 0.00 67 1030.7
20210414105108 11 40 4.8 9.7 0.00 0.00 0.00 66 1030.8
20210414103906 12 38 4.8 11.3 0.00 0.00 0.00 68 1030.8
20210414103419 11 64 4.8 9.7 0.00 0.00 0.00 68 1030.8
20210414101408 10 32 3.2 9.7 0.00 0.00 0.00 69 1030.9
20210414100908 11 47 0.0 3.2 0.00 0.00 0.00 69 1030.8
20210414100412 10 44 0.0 4.8 0.00 0.00 0.00 69 1030.8
20210414095110 9 30 0.0 0.0 0.00 0.00 0.00 68 1030.8
20210414094412 9 30 0.0 4.8 0.00 0.00 0.00 70 1030.9
20210414093905 8 30 3.2 8.0 0.00 0.00 0.00 71 1030.9
20210414093415 8 47 1.6 4.8 0.00 0.00 0.00 68 1030.9
20210414092128 8 48 1.6 4.8 0.00 0.00 0.00 67 1031.0
20210414091405 8 48 0.0 4.8 0.00 0.00 0.00 68 1030.9
20210414090904 8 48 1.6 8.0 0.00 0.00 0.00 67 1030.9
20210414090408 8 15 1.6 4.8 0.00 0.00 0.00 67 1030.7
20210414084418 7 338 0.0 0.0 0.00 0.00 0.00 65 1030.8
20210414083905 7 313 0.0 3.2 0.00 0.00 0.00 66 1030.8
20210414081412 7 294 0.0 0.0 0.00 0.00 0.00 67 1030.7
20210414080915 7 294 0.0 0.0 0.00 0.00 0.00 67 1030.7
20210414080416 6 294 0.0 0.0 0.00 0.00 0.00 67 1030.7
20210414073912 6 294 0.0 0.0 0.00 0.00 0.00 69 1030.7
20210414073419 6 294 0.0 0.0 0.00 0.00 0.00 69 1030.7
20210414070906 5 294 0.0 0.0 0.00 0.00 0.00 70 1030.6
20210414070414 5 294 0.0 0.0 0.00 0.00 0.00 69 1030.6
20210414065138 5 294 0.0 0.0 0.00 0.00 0.00 70 1030.6
20210414064405 5 294 0.0 0.0 0.00 0.00 0.00 70 1030.6
20210414063907 5 294 0.0 0.0 0.00 0.00 0.00 70 1030.6
20210414063411 4 294 0.0 0.0 0.00 0.00 0.00 70 1030.6
20210414061959 3 294 0.0 0.0 0.00 0.00 0.00 70 1030.4
20210414060904 3 294 0.0 0.0 0.00 0.00 0.00 70 1030.4
20210414060448 3 302 0.0 1.6 0.00 0.00 0.00 70 1030.4
20210414054420 3 307 1.6 3.2 0.00 0.00 0.00 70 1030.1
20210414053910 3 307 0.0 0.0 0.00 0.00 0.00 69 1030.1
20210414051421 3 308 0.0 0.0 0.00 0.00 0.00 70 1030.0
20210414050432 3 308 1.6 3.2 0.00 0.00 0.00 70 1030.0
20210414045210 3 308 0.0 0.0 0.00 0.00 0.00 69 1029.8
20210414044421 3 308 0.0 0.0 0.00 0.00 0.00 69 1029.8
20210414043905 3 308 0.0 0.0 0.00 0.00 0.00 69 1029.8
20210414041411 3 308 0.0 0.0 0.00 0.00 0.00 69 1029.8
20210414040906 4 308 0.0 0.0 0.00 0.00 0.00 69 1029.7
20210414035128 4 308 0.0 1.6 0.00 0.00 0.00 69 1029.7
20210414034411 4 308 0.0 3.2 0.00 0.00 0.00 69 1029.7
20210414033906 4 308 1.6 4.8 0.00 0.00 0.00 69 1029.7
20210414033537 4 308 0.0 4.8 0.00 0.00 0.00 69 1029.7
20210414031410 4 308 1.6 4.8 0.00 0.00 0.00 69 1029.7
20210414025106 4 327 1.6 4.8 0.00 0.00 0.00 68 1029.8
20210414023405 4 333 1.6 4.8 0.00 0.00 0.00 68 1029.9
20210414022131 4 333 1.6 4.8 0.00 0.00 0.00 68 1029.8
20210414020904 4 333 0.0 0.0 0.00 0.00 0.00 68 1029.8
20210414020416 4 333 0.0 0.0 0.00 0.00 0.00 68 1029.8
20210414015145 4 333 0.0 0.0 0.00 0.00 0.00 68 1029.8
20210414014406 4 333 0.0 0.0 0.00 0.00 0.00 68 1029.7
20210414013907 4 333 0.0 0.0 0.00 0.00 0.00 68 1029.7
20210414012024 4 333 0.0 0.0 0.00 0.00 0.00 68 1029.7
20210414011414 4 333 0.0 3.2 0.00 0.00 0.00 68 1029.7
20210414010414 4 333 1.6 4.8 0.00 0.00 0.00 68 1029.7
20210414005345 3 333 0.0 3.2 0.00 0.00 0.00 68 1029.7
20210414004415 3 333 0.0 0.0 0.00 0.00 0.00 67 1029.8
20210414003905 3 333 0.0 0.0 0.00 0.00 0.00 67 1029.8
20210414002022 4 333 0.0 0.0 0.00 0.00 0.00 67 1029.8
20210414001405 4 333 1.6 3.2 0.00 0.00 0.00 67 1029.8
20210414000906 4 333 0.0 0.0 0.00 0.00 0.00 67 1029.8
20210414000417 3 333 0.0 4.8 0.00 0.00 0.00 67 1029.8
20210413235436 3 333 0.0 0.0 0.00 0.00 0.00 67 1029.9
20210413234410 3 333 0.0 0.0 0.00 0.00 0.00 66 1029.8
20210413233907 3 333 0.0 0.0 0.00 0.00 0.00 66 1029.8
20210413233421 3 333 0.0 0.0 0.00 0.00 0.00 66 1029.8
20210413231420 4 333 0.0 0.0 0.00 0.00 0.00 66 1029.8
20210413230904 4 333 0.0 0.0 0.00 0.00 0.00 66 1029.8
20210413230418 4 333 0.0 0.0 0.00 0.00 0.00 66 1029.8
20210413225433 4 333 0.0 0.0 0.00 0.00 0.00 66 1029.9
20210413224524 4 333 0.0 0.0 0.00 0.00 0.00 66 1029.9
20210413223906 4 333 0.0 0.0 0.00 0.00 0.00 66 1029.9
20210413223412 5 333 0.0 0.0 0.00 0.00 0.00 66 1029.9
20210413222204 5 333 0.0 0.0 0.00 0.00 0.00 66 1030.0
20210413221404 5 333 0.0 0.0 0.00 0.00 0.00 66 1029.9
20210413220910 5 333 0.0 0.0 0.00 0.00 0.00 66 1029.9
20210413214409 5 333 0.0 0.0 0.00 0.00 0.00 66 1029.7
20210413213419 5 333 0.0 0.0 0.00 0.00 0.00 66 1029.6
20210413212128 5 333 0.0 0.0 0.00 0.00 0.00 66 1029.6
20210413210912 5 333 0.0 0.0 0.00 0.00 0.00 67 1029.6
20210413210409 6 333 0.0 0.0 0.00 0.00 0.00 67 1029.6
20210413204954 6 333 0.0 3.2 0.00 0.00 0.00 67 1029.6
20210413204406 6 333 0.0 0.0 0.00 0.00 0.00 66 1029.6
20210413203919 6 333 0.0 0.0 0.00 0.00 0.00 67 1029.6
20210413203409 6 333 0.0 0.0 0.00 0.00 0.00 67 1029.6
20210413202122 6 333 0.0 0.0 0.00 0.00 0.00 68 1029.6
20210413200449 6 333 0.0 0.0 0.00 0.00 0.00 68 1029.6
20210413194904 7 333 0.0 0.0 0.00 0.00 0.00 68 1029.6
20210413192234 7 321 3.2 8.0 0.00 0.00 0.00 69 1029.3
20210413191422 7 304 3.2 4.8 0.00 0.00 0.00 69 1029.1
20210413190910 7 300 1.6 4.8 0.00 0.00 0.00 69 1029.1
20210413190417 7 301 3.2 16.1 0.00 0.00 0.00 69 1029.1
20210413183905 8 297 8.0 11.3 0.00 0.00 0.00 70 1029.0
20210413183407 8 298 3.2 14.5 0.00 0.00 0.00 70 1029.0
20210413181409 9 309 8.0 14.5 0.00 0.00 0.00 69 1028.9
20210413180916 9 299 8.0 14.5 0.00 0.00 0.00 69 1028.9
20210413174940 9 295 4.8 9.7 0.00 0.00 0.00 69 1028.8
20210413174410 9 308 8.0 14.5 0.00 0.00 0.00 69 1028.8
20210413173905 9 298 8.0 20.9 0.00 0.00 0.00 69 1028.8
20210413173416 9 299 4.8 16.1 0.00 0.00 0.00 69 1028.8
20210413172219 10 287 8.0 19.3 0.00 0.00 0.00 69 1028.8
20210413171426 10 309 4.8 11.3 0.00 0.00 0.00 69 1028.8
20210413170904 9 275 8.0 19.3 0.00 0.00 0.00 69 1028.8
20210413165107 10 287 14.5 19.3 0.00 0.00 0.00 68 1028.8
20210413164405 10 292 11.3 22.5 0.00 0.00 0.00 68 1028.7
20210413163907 10 300 11.3 19.3 0.00 0.00 0.00 66 1028.7
20210413163412 10 303 11.3 19.3 0.00 0.00 0.00 66 1028.7
20210413162241 11 288 8.0 19.3 0.00 0.00 0.00 63 1028.6
20210413160905 11 311 11.3 19.3 0.00 0.00 0.00 63 1028.7
20210413160454 11 304 9.7 19.3 0.00 0.00 0.00 61 1028.7
20210413153905 11 281 12.9 20.9 0.00 0.00 0.00 58 1028.8
20210413153416 11 308 9.7 19.3 0.00 0.00 0.00 57 1028.8
20210413145345 11 348 8.0 11.3 0.00 0.00 0.00 54 1028.9
20210413144432 11 347 0.0 8.0 0.00 0.00 0.00 54 1029.0
20210413143906 11 26 0.0 0.0 0.00 0.00 0.00 54 1029.0
20210413143415 11 26 0.0 8.0 0.00 0.00 0.00 54 1029.0
20210413140415 12 344 8.0 11.3 0.00 0.00 0.00 52 1029.0
20210413135311 12 37 1.6 4.8 0.00 0.00 0.00 52 1029.1
20210413134415 13 18 1.6 8.0 0.00 0.00 0.00 49 1029.2
20210413133905 13 56 0.0 4.8 0.00 0.00 0.00 53 1029.2
20210413133405 13 48 0.0 11.3 0.00 0.00 0.00 49 1029.3
20210413132052 13 7 3.2 9.7 0.00 0.00 0.00 52 1029.2
20210413131429 13 44 3.2 9.7 0.00 0.00 0.00 52 1029.3
20210413130409 12 338 3.2 14.5 0.00 0.00 0.00 52 1029.4
20210413125704 12 61 0.0 4.8 0.00 0.00 0.00 49 1029.4
20210413124408 13 80 1.6 4.8 0.00 0.00 0.00 51 1029.4
20210413123418 12 85 1.6 8.0 0.00 0.00 0.00 53 1029.4
20210413122449 12 76 3.2 8.0 0.00 0.00 0.00 52 1029.5
20210413120405 12 53 3.2 9.7 0.00 0.00 0.00 52 1029.5
20210413115839 12 52 3.2 8.0 0.00 0.00 0.00 51 1029.5